Lexington Weather

Lexington, Massachusetts, USA

72°F
9/22/2021 2:29pm 
  • Lexington Conditions: Overcast
  • Temperature: 71.8°F / 22.1°CColder 2.9°F than last hour.
  • Dew Point: 69.1°FIncreased 1.1°Fsince last hour.
  • Relative Humidity: 91%Increased 11.0% since last hour.
  • Wind: Wind from SE SE 9 mph, 10-min avg: 3 mph, gust: 13 mph
  • Barometer: 30.08 inFalling 0.02  inHg/hr Falling Slowly
  • Visibility: 10 miles
  • Rain Today: 0.00 in
  •   

Regional Weather Roundup
for Boston / Norton, MA

        
000
ASUS41 KBOX 210804
RWRBOX

REGIONAL WEATHER ROUNDUP
NATIONAL WEATHER SERVICE BOSTON/NORTON MA
400 AM EDT TUE SEP 21 2021

NOTE:  "FAIR" INDICATES FEW OR NO CLOUDS BELOW 12,000 FEET WITH NO 
SIGNIFICANT WEATHER AND/OR OBSTRUCTIONS TO VISIBILITY.

MAZALL-210900-
EASTERN MASSACHUSETTS
  
CITY           SKY/WX    TMP DP  RH WIND       PRES   REMARKS
BOSTON         PTCLDY    59  51  75 CALM      30.41S                  
BEVERLY        CLEAR     50  50 100 CALM      30.40F                  
LAWRENCE       PTCLDY    52  50  93 CALM      30.42F                  
BEDFORD        FOG       49  49 100 CALM      30.40S VSB 1            
BLUE HILL      NOT AVBL                                               
NORWOOD        MOCLDY    45  43  93 CALM      30.40S                  
MARSHFIELD     CLOUDY    52  50  93 CALM      30.39F                  
PLYMOUTH       CLEAR     50  48  93 CALM      30.40F                  
TAUNTON        CLEAR     44  42  93 CALM      30.39F                  
NEW BEDFORD    CLEAR     47  47 100 CALM      30.38F FOG              
$$

MAZALL-210900-
CAPE COD AND THE ISLANDS
  
CITY           SKY/WX    TMP DP  RH WIND       PRES   REMARKS
FALMOUTH       PTCLDY    54  54 100 NE3       30.39F                  
HYANNIS        MOCLDY    53  52  96 NE3       30.38F                  
CHATHAM        PTCLDY    62  59  90 SE5       30.40F                  
PROVINCETOWN   CLEAR     50  49  96 E5        30.41F                  
NANTUCKET      CLEAR     61  57  87 E7        30.38F                  
MARTHAS VNYRD  CLEAR     49  48  97 CALM      30.38F                  
$$
 
MAZALL-210900-
CENTRAL AND WESTERN MASSACHUSETTS
  
CITY           SKY/WX    TMP DP  RH WIND       PRES   REMARKS
WORCESTER      CLEAR     56  53  90 SE3       30.40F                  
FITCHBURG      CLEAR     50  48  93 CALM      30.41F                  
ORANGE         MOCLDY    50  49  96 CALM      30.41F                  
SPRINGFIELD    CLEAR     51  51 100 CALM      30.38F                  
WESTFIELD      CLEAR     52  52 100 CALM      30.39F                  
NORTH ADAMS    CLEAR     57  52  83 VRB7      30.37F                  
PITTSFIELD     PTCLDY    53  52  96 NE3       30.37F                  
$$
 
RIZALL-210900-
RHODE ISLAND
  
CITY           SKY/WX    TMP DP  RH WIND       PRES   REMARKS
PROVIDENCE     CLEAR     54  53  97 N3        30.40F                  
NEWPORT        CLEAR     56  53  90 CALM      30.38F                  
SMITHFIELD     CLEAR     50  49  96 CALM      30.40F                  
WESTERLY       CLEAR     50  50 100 VRB3      30.39S                  
$$
 
CTZALL-210900-
CONNECTICUT
  
CITY           SKY/WX    TMP DP  RH WIND       PRES   REMARKS
BRADLEY INTL   PTCLDY    51  51 100 CALM      30.39F                  
HARTFORD       CLEAR     56  52  86 CALM      30.39S                  
BRIDGEPORT     PTCLDY    63  54  72 SE6       30.36F                  
DANBURY        PTCLDY    53  50  89 CALM      30.38F                  
GROTON         CLEAR     52  50  93 N3        30.37F                  
NEW HAVEN      CLEAR     58  55  90 N3        30.37F                  
CHESTER        FAIR      52  52 100 CALM      30.38F                  
MERIDEN        CLEAR     54  51  90 CALM      30.38F                  
WILLIMANTIC    MOCLDY    50  49  96 CALM      30.41R                  
OXFORD         CLEAR     53  52  96 E5        30.38F                  
$$

MEZ002-015-021-024-NHZ003-005-008-011-012-014-VTZ005-008-210900-
NORTHERN NEW ENGLAND
  
CITY           SKY/WX    TMP DP  RH WIND       PRES   REMARKS
PORTLAND ME    CLEAR     51  50  96 CALM      30.41F                  
BANGOR ME      FOG       54  54 100 CALM      30.42F VSB 1/4          
CONCORD NH     CLEAR     48  46  93 CALM      30.41F                  
MANCHESTER NH  PTCLDY    54  49  83 CALM      30.39F                  
NASHUA NH      CLEAR     50  50 100 NW3       30.42S                  
PORTSMOUTH NH  PTCLDY    51  50  94 CALM      30.41F                  
JAFFREY NH     CLEAR     49  49 100 CALM      30.41S                  
KEENE NH       PTCLDY    50  50 100 CALM      30.41S                  
BURLINGTON VT  CLEAR     63  55  75 S13G18    30.30F                  
MT. WASHINGTON MOCLDY    52   1  12 SW21        N/A                   
$$

NYZ052-076-210900-
EASTERN NEW YORK
  
CITY           SKY/WX    TMP DP  RH WIND       PRES   REMARKS
ALBANY         PTCLDY    56  54  93 SE5       30.35F                  
NEW YORK CITY  MOCLDY    65  55  70 E7        30.33F                  
$$
 
ANZALL-210900-
MARINE OBSERVATIONS
  
STATION/POSITION TIME  TEMP    WIND        PRES    VSBY  WAVE
                       AIR SEA DIR/SP/G                  HT/PER
                 (UTC) (F)     (DEG/KT/KT) (MB)    (MI)  (FT/S)
BOSTON BUOY      0740      64  140/  8/ 12 1030.0F
BUZZARDS BAY     0700          110/ 10/ 12 1030.0F
NANTUCKET SOUND  0740   65 71  120/ 12/ 14 1028.8F
MASS BAY-STELLWA 0704   62     160/ 10/ 12 1029.5F  1 7/8  4/ 8
ISLE OF SHOALS   0700   63     160/ 11/ 12 1029.4F
S OF BLOCK IS    0726      71                N/A           3/ 9
$$

......................KEY.........................
  SKY/WX - SKY CONDITION/PRESENT WEATHER
  TMP    - TEMPERATURE IN FAHRENHEIT
  DWPT   - DEWPOINT IN FAHRENHEIT
  RH     - RELATIVE HUMIDITY IN PERCENT
  WIND   - DIRECTION AND SPEED IN MPH
  PRES   - MEAN SEA LEVEL PRESSURE IN INCHES OF HG
  WCI    - WIND CHILL INDEX
  VSB    - VISIBILITY IN MILES
  HX     - HEAT INDEX
  TC     - TEMPERATURE IN CELSIUS
  VRB    - VARIABLE WIND DIRECTION
  N/A    - NOT AVAILABLE
  
      

Other recent Regional Weather Roundups

Wed Sep 22, 2:04pm

Wed Sep 22, 1:04pm

Wed Sep 22, 12:05pm

Wed Sep 22, 11:04am

Wed Sep 22, 10:04am

Wed Sep 22, 9:04am

Wed Sep 22, 8:04am

Wed Sep 22, 7:04am

Wed Sep 22, 6:04am

Wed Sep 22, 5:04am

Wed Sep 22, 4:04am

Wed Sep 22, 3:04am

Wed Sep 22, 2:04am

Wed Sep 22, 1:04am

Wed Sep 22, 12:04am

Tue Sep 21, 11:04pm

Tue Sep 21, 10:04pm

Tue Sep 21, 9:04pm

Tue Sep 21, 8:04pm

Tue Sep 21, 7:04pm

Tue Sep 21, 6:04pm

Tue Sep 21, 5:04pm

Tue Sep 21, 4:04pm

Tue Sep 21, 3:04pm

Tue Sep 21, 2:04pm

Tue Sep 21, 1:04pm

Tue Sep 21, 12:04pm

Tue Sep 21, 11:04am

Tue Sep 21, 10:04am

Tue Sep 21, 9:04am

Tue Sep 21, 8:04am

Tue Sep 21, 7:04am

Tue Sep 21, 6:04am

Tue Sep 21, 5:04am

Tue Sep 21, 3:04am

Tue Sep 21, 2:04am

Tue Sep 21, 1:04am

Tue Sep 21, 12:04am

Mon Sep 20, 11:04pm

Mon Sep 20, 10:04pm

Mon Sep 20, 9:04pm

Mon Sep 20, 8:04pm

Mon Sep 20, 7:04pm

Mon Sep 20, 6:04pm

Mon Sep 20, 5:04pm

Mon Sep 20, 4:04pm

Mon Sep 20, 3:04pm

Mon Sep 20, 2:04pm

Mon Sep 20, 1:04pm

Mon Sep 20, 12:04pm

Mon Sep 20, 11:04am

Mon Sep 20, 10:04am

Mon Sep 20, 9:04am

Mon Sep 20, 7:04am

Mon Sep 20, 6:04am

Mon Sep 20, 5:04am

Mon Sep 20, 4:04am

Mon Sep 20, 3:04am

Mon Sep 20, 2:04am

Mon Sep 20, 1:04am

Mon Sep 20, 12:04am

Sun Sep 19, 11:04pm

Sun Sep 19, 10:04pm

Sun Sep 19, 9:04pm

Sun Sep 19, 8:04pm

Sun Sep 19, 7:04pm

Sun Sep 19, 6:04pm

Sun Sep 19, 5:04pm

Sun Sep 19, 4:04pm

Sun Sep 19, 3:04pm

Sun Sep 19, 2:05pm

Sun Sep 19, 1:04pm

Sun Sep 19, 12:04pm

Sun Sep 19, 11:04am

Sun Sep 19, 10:05am

Sun Sep 19, 9:04am

Sun Sep 19, 8:04am

Sun Sep 19, 7:04am

Sun Sep 19, 6:04am

Sun Sep 19, 5:04am

Sun Sep 19, 4:04am

Sun Sep 19, 3:04am

Sun Sep 19, 2:04am

Sun Sep 19, 1:04am

Sun Sep 19, 12:04am

Sat Sep 18, 11:05pm

Sat Sep 18, 10:04pm

Sat Sep 18, 9:04pm

Sat Sep 18, 8:04pm

Sat Sep 18, 7:04pm

Sat Sep 18, 6:04pm

Sat Sep 18, 5:04pm

Sat Sep 18, 4:04pm

Sat Sep 18, 3:04pm

Sat Sep 18, 2:04pm

Sat Sep 18, 1:04pm

Sat Sep 18, 12:04pm

Sat Sep 18, 11:04am

Sat Sep 18, 10:04am

Sat Sep 18, 9:04am

Sat Sep 18, 8:04am

Sat Sep 18, 7:04am

Sat Sep 18, 6:04am

Sat Sep 18, 5:04am

Sat Sep 18, 4:04am

Sat Sep 18, 3:04am

Sat Sep 18, 2:04am

Sat Sep 18, 1:04am

Sat Sep 18, 12:04am

Fri Sep 17, 11:04pm

Fri Sep 17, 10:04pm

Fri Sep 17, 9:04pm

Fri Sep 17, 8:04pm

Fri Sep 17, 7:04pm

Fri Sep 17, 6:04pm

Fri Sep 17, 5:04pm

Fri Sep 17, 4:04pm

Fri Sep 17, 3:04pm

Fri Sep 17, 2:04pm

Fri Sep 17, 1:04pm

Fri Sep 17, 12:05pm

Fri Sep 17, 11:04am

Fri Sep 17, 10:04am

Fri Sep 17, 9:04am

Fri Sep 17, 8:04am

Fri Sep 17, 7:04am

Fri Sep 17, 6:04am

Fri Sep 17, 5:04am

Fri Sep 17, 4:04am

Fri Sep 17, 3:04am

Fri Sep 17, 2:04am

Fri Sep 17, 1:04am

Fri Sep 17, 12:04am

Thu Sep 16, 11:04pm

Thu Sep 16, 10:04pm

Thu Sep 16, 9:04pm

Thu Sep 16, 8:04pm

Thu Sep 16, 7:04pm

Thu Sep 16, 6:04pm

Thu Sep 16, 5:04pm

Thu Sep 16, 4:04pm

Thu Sep 16, 3:04pm

Thu Sep 16, 2:04pm

Thu Sep 16, 1:05pm

Thu Sep 16, 12:04pm

Thu Sep 16, 11:05am

Thu Sep 16, 10:05am

Thu Sep 16, 9:04am

Thu Sep 16, 8:04am

Thu Sep 16, 7:04am

Thu Sep 16, 6:04am

Thu Sep 16, 5:04am

Thu Sep 16, 4:04am

Thu Sep 16, 3:04am

Thu Sep 16, 2:04am

Thu Sep 16, 1:04am

Thu Sep 16, 12:04am

Wed Sep 15, 11:04pm

Wed Sep 15, 10:04pm

Wed Sep 15, 9:04pm

Wed Sep 15, 8:04pm

Wed Sep 15, 7:04pm

Wed Sep 15, 6:04pm

Wed Sep 15, 5:05pm

Wed Sep 15, 4:04pm

Wed Sep 15, 3:04pm

Meta data:

ID: 4d2a3044-ca23-4efe-a226-24c259ad57c3
Link: https://api.weather.gov/products/4d2a3044-ca23-4efe-a226-24c259ad57c3